Regional Weather Roundup
Issued by NWS Charleston, SC

Current Version | Previous Version | Graphics & Text | Print | Product List | Glossary On
Versions: 1 2 3 4 5 6 7 8 9 10 11 12 13 14 15 16 17 18 19 20 21 22 23 24 25 26 27 28 29 30 31 32 33 34 35 36 37 38 39 40 41 42 43 44 45 46 47 48 49 50
000
ASUS42 KCHS 281313
RWRCHS

REGIONAL WEATHER ROUNDUP
NATIONAL WEATHER SERVICE CHARLESTON SC
900 AM EDT SAT MAY 28 2016

NOTE: "FAIR" INDICATES FEW OR NO CLOUDS BELOW 12,000 FEET WITH NO
SIGNIFICANT WEATHER AND/OR OBSTRUCTIONS TO VISIBILITY.

NOT ALL STATIONS ARE QUALITY CONTROLLED. USE DATA WITH CAUTION...
ESPECIALLY DEWPOINT OBSERVATIONS.

SCZ027-030-031-034>040-042>050-281400-
...SOUTHEAST SOUTH CAROLINA...

CITY           SKY/WX    TMP DP  RH WIND       PRES   REMARKS
N CHARLESTON   PTSUNNY   77  69  76 NE9       30.11R
WATERFRONT PRK   N/A     74  72  93 N8        30.08R
MOUNT PLEASANT FAIR      75  72  88 N7        30.11R
JOHNS ISLAND   FAIR      75  72  88 N6        30.10S
PINOPOLIS        N/A     75  70  83 E7        30.03S
MONCKS CORNER  LGT RAIN  70  66  88 CALM      30.13R
SUMMERVILLE    FAIR      75  70  83 NE6       30.13R
BEAUFORT MCAS  PTSUNNY   76  70  82 NE8       30.11R
BEAUFORT ARPT  FAIR      73  70  88 N6        30.10S
HILTON HEAD IS PTSUNNY   77  73  88 N10       30.12R
WALTERBORO     MOSUNNY   79  70  73 E9        30.12S
ALLENDALE      CLOUDY    73  68  83 VRB3      30.12R

...SOUTHERN MIDLANDS AND PEE DEE...

CITY           SKY/WX    TMP DP  RH WIND       PRES   REMARKS
GEORGETOWN     FAIR      75  70  83 NE8       30.13S
KINGSTREE      CLOUDY    72  64  78 NE3       30.14R
ORANGEBURG     MOSUNNY   74  66  76 E5        30.14R
BARNWELL       PTSUNNY   73  70  88 NE6       30.14S
AIKEN          CLOUDY    70  63  78 NE7       30.18S
MANNING        HVY RAIN  70  68  94 N3        30.15R
COLUMBIA       MOSUNNY   76  63  64 E3        30.14R
SUMTER         MOSUNNY   72  64  76 E8        30.13R
FLORENCE       PTSUNNY   74  66  76 NE7       30.16R
MYRTLE BEACH   SUNNY     77  64  65 NE8       30.15R
N MYRTLE BEACH MOSUNNY   76  69  79 NE10G21   30.13R

$$

GAZ063-065-086>088-099>101-113>116-118-119-134>141-150-281400-
...SOUTHEAST GEORGIA...

CITY           SKY/WX    TMP DP  RH WIND       PRES   REMARKS
SAVANNAH ARPT  CLOUDY    73  68  84 NE7       30.10R
HUNTER AAF     CLOUDY    76  70  82 NE8       30.07R
FORT STEWART   PTSUNNY   73  67  84 N1        30.08R
STATESBORO     MOSUNNY   71  68  90 N5        30.12S
SYLVANIA       PTSUNNY   75  68  79 E3        30.13S
CLAXTON        FAIR      73  69  87 N5        30.12R

...CSRA...CENTRAL AND FAR SOUTHEAST GEORGIA...

CITY           SKY/WX    TMP DP  RH WIND       PRES   REMARKS
THOMSON        SUNNY     73  68  82 E7        30.19S
AUGUSTA-BUSH   MOSUNNY   69  63  81 N5        30.14R
AUGUSTA-DANIEL MOSUNNY   75  63  66 NE5       30.16R
SWAINSBORO     FAIR      72  64  78 NE3       30.14R
VIDALIA        MOSUNNY   70  64  83 NE3       30.12S
EASTMAN        FAIR      74  68  82 E5        30.15R
HAZLEHURST     FAIR      74  69  83 CALM      30.11R
ALMA           MOSUNNY   75  69  81 CALM      30.10S
WAYCROSS       MOSUNNY   73  69  87 NE5       30.10S
JESUP          FAIR      66  64  94 N3        30.10S
BAXLEY         FAIR      75  70  83 NE6       30.11R
BRUNSWICK      MOSUNNY   70  64  83 NW5       30.09R
SAINT SIMONS   PTSUNNY   76  72  87 NW6       30.07R

$$

SCZ027-028-034-036>038-045-046-048>050-GAZ119-141-281400-
...LAKE AND SUPPLEMENTAL COASTAL OBSERVATIONS...

STATION/POSITION TIME  TEMP    WIND        PRES    WAVE   SWELL
                       AIR SEA DIR/SP/G            HT/PER HT/PER/DIR
                 (UTC) (F)     (DEG/KT/KT) (MB)    (FT/S) (FT/S/D)
WINYAH BAY       NOT AVBL
LAKE MURRAY      1200   66      30/  2/  4 1020.3R
ACE BASIN NERRS  NOT AVBL
FORT PULASKI     1200   73 76   30/ 11/ 15 1018.8R
SAPELO ISLAND    1200   75      30/  5     1018.0S

$$

ANZ835-935-AMZ111-154-330-350-352-354-370-450-454-472-281400-
...C-MAN AND BUOY OBSERVATIONS...

STATION/POSITION TIME  TEMP    WIND        PRES    WAVE   SWELL
                       AIR SEA DIR/SP/G            HT/PER HT/PER/DIR
                 (UTC) (F)     (DEG/KT/KT) (MB)    (FT/S) (FT/S/D)
BUOY 41004       1250   77 76   50/ 16/ 17 1017.8R   5/ 9   3/ 9
BUOY 41008       1250   76 76   50/ 16/ 17 1017.7R   4/ 6   2/130/ 7
FOLLY BEACH CMAN 1200   73      20/ 11/ 13 1019.2R
CAPERS NEARSHORE 1208   75 76   10/ 12/ 16 1018.8R
FRIPP NEARSHORE  1208   75 77   40/ 14/ 17 1018.1R


STATION/POSITION TIME  TEMP    WIND        PRES    WAVE   SWELL
                       AIR SEA DIR/SP/G            HT/PER HT/PER/DIR
                 (UTC) (F)     (DEG/KT/KT) (MB)    (FT/S) (FT/S/D)
5E ST. MARYS GA  NOT AVBL
FRYING PAN BUOY  1200   77 76   60/ 16/ 19 1019.0R
BUOY 41025       1250   77 78  100/ 12/ 14 1021.6R   4/ 7   3/120/ 7
CAPE LOOKOUT NC  1200   75      80/  8/  9 1020.7R
BUOY 41002       1250   77 77   90/ 17/ 19 1018.8R   4/ 6   2/110/ 7
BUOY 41010       1220   77 78  300/ 10/ 12 1014.5R
ST AUGUSTINE FL  1300   77 79  350/  9/ 11 1018.5R


$$




USA.gov is the U.S. government's official web portal to all federal, state and local government web resources and services.